Weather History for KNQI - March, 2014

Change the Weather History Date:

Saturday, March 22, 2014

  Actual Average Record
Temperature  
Mean Temperature 77 °F -  
Max Temperature 86 °F 74 °F 93 °F (2008)
Min Temperature 70 °F 57 °F 42 °F (2001)
Cooling Degree Days 12    
Growing Degree Days 27 (Base 50)    
Moisture  
Dew Point 70 °F    
Average Humidity 84    
Maximum Humidity 97    
Minimum Humidity 63    
Precipitation  
Precipitation 0.00 in - - ()
Sea Level Pressure  
Sea Level Pressure 29.90 in    
Wind  
Wind Speed 9 mph (SE)    
Max Wind Speed 14 mph    
Max Gust Speed 22 mph    
Visibility 10 miles    
Events      
Averages and records for this station are not official NWS values.
T = Trace of Precipitation, MM = Missing Value Source: NWS Daily Summary

Daily Weather History Graph

Daily Weather History Graph

Search for Another Location

Airport or City:

Trip Planner

Search our weather history database for the weather conditions in past years. The results will help you decide how hot, cold, wet, or windy it might be!

Date:

Astronomy

Mar. 22, 2014 Rise Set
Actual Time 7:32 AM CDT 7:43 PM CDT
Civil Twilight 7:09 AM CDT 8:06 PM CDT
Nautical Twilight 6:42 AM CDT 8:34 PM CDT
Astronomical Twilight 6:15 AM CDT 9:01 PM CDT
Moon 12:39 AM CDT (3/22) 11:42 AM CDT (3/22)
Length of Visible Light 12h 57m
Length of Day
12h 10m
Waning Gibbous, 65% of the Moon is Illuminated
Mar 22
Waning Gibbous
Mar 23
Last Quarter
Mar 30
New
Apr 7
First Quarter
Apr 15
Full

Hourly Weather History & Observations

Time (CDT) Temp. Heat Index Dew Point Humidity Pressure Visibility Wind Dir Wind Speed Gust Speed Precip Events Conditions
12:23 AM 70.0 °F - 68.0 °F 93% 29.91 in 10.0 mi SE 9.2 mph - N/A   Overcast
12:43 AM 71.1 °F - 69.1 °F 93% 29.91 in 10.0 mi SE 9.2 mph - N/A   Overcast
12:56 AM 71.1 °F - 69.1 °F 93% 29.90 in 10.0 mi SSE 12.7 mph - N/A   Overcast
1:56 AM 71.1 °F - 69.1 °F 93% 29.89 in 10.0 mi SSE 10.4 mph - N/A   Overcast
2:27 AM 71.1 °F - 69.1 °F 93% 29.90 in 10.0 mi SE 6.9 mph - N/A   Overcast
2:56 AM 71.1 °F - 70.0 °F 96% 29.88 in 10.0 mi SE 6.9 mph - N/A   Overcast
3:08 AM 71.1 °F - 70.0 °F 96% 29.89 in 10.0 mi SE 5.8 mph - N/A   Overcast
3:56 AM 71.1 °F - 70.0 °F 96% 29.87 in 10.0 mi SE 8.1 mph - N/A   Overcast
4:56 AM 71.1 °F - 70.0 °F 96% 29.86 in 10.0 mi SE 5.8 mph - N/A   Overcast
5:56 AM 71.1 °F - 69.1 °F 93% 29.88 in 10.0 mi ESE 4.6 mph - N/A   Overcast
6:56 AM 71.1 °F - 70.0 °F 96% 29.89 in 10.0 mi ESE 5.8 mph - N/A   Overcast
7:56 AM 72.0 °F - 70.0 °F 93% 29.90 in 10.0 mi SE 6.9 mph - N/A   Overcast
8:56 AM 73.0 °F - 70.0 °F 90% 29.92 in 10.0 mi SSE 6.9 mph - N/A   Overcast
9:56 AM 75.0 °F - 70.0 °F 84% 29.94 in 10.0 mi SSE 6.9 mph - N/A   Overcast
10:56 AM 78.1 °F - 70.0 °F 76% 29.94 in 10.0 mi South 11.5 mph - N/A   Overcast
11:56 AM 79.0 °F - 70.0 °F 74% 29.94 in 10.0 mi South 6.9 mph - N/A   Overcast
12:56 PM 80.1 °F 83.6 °F 71.1 °F 74% 29.93 in 10.0 mi SSE 5.8 mph - N/A   Overcast
1:56 PM 81.0 °F 84.9 °F 71.1 °F 72% 29.91 in 10.0 mi SSE 11.5 mph - N/A   Overcast
2:56 PM 82.9 °F 87.5 °F 71.1 °F 67% 29.89 in 10.0 mi SSE 5.8 mph - N/A   Overcast
3:19 PM 84.0 °F 88.4 °F 70.0 °F 63% 29.89 in 10.0 mi SSE 9.2 mph - N/A   Mostly Cloudy
3:56 PM 84.9 °F 90.7 °F 72.0 °F 65% 29.87 in 10.0 mi SE 12.7 mph 21.9 mph N/A   Mostly Cloudy
4:56 PM 82.9 °F 87.5 °F 71.1 °F 67% 29.86 in 10.0 mi SE 13.8 mph - N/A   Scattered Clouds
5:13 PM 82.0 °F 86.3 °F 71.1 °F 69% 29.87 in 10.0 mi ESE 11.5 mph 20.7 mph N/A   Mostly Cloudy
5:56 PM 81.0 °F 84.4 °F 70.0 °F 69% 29.86 in 10.0 mi SE 13.8 mph - N/A   Mostly Cloudy
6:56 PM 78.1 °F - 69.1 °F 74% 29.88 in 10.0 mi SE 12.7 mph - N/A   Overcast
7:56 PM 75.9 °F - 69.1 °F 79% 29.90 in 10.0 mi ESE 9.2 mph - N/A   Overcast
8:56 PM 73.9 °F - 70.0 °F 87% 29.92 in 10.0 mi ESE 9.2 mph - N/A   Overcast
9:56 PM 73.9 °F - 70.0 °F 87% 29.94 in 10.0 mi SE 8.1 mph - N/A   Overcast
10:56 PM 73.0 °F - 70.0 °F 90% 29.96 in 10.0 mi SE 8.1 mph - N/A   Overcast
11:42 PM 73.0 °F - 71.1 °F 93% 29.97 in 10.0 mi SE 10.4 mph - N/A   Mostly Cloudy
11:56 PM 72.0 °F - 71.1 °F 97% 29.96 in 10.0 mi SE 10.4 mph - N/A   Overcast